FMCAZ BGSF-BGGH

Flight info

Callsign FMCAZ
Flight time N/A
Altitude 19000
Route GILPO1B GILPO DCT BAKUG DCT GETDA
Aircraft SF34/M-SBDE2E3FGHIJ4J5M1RWXY/LB1D1

Departure

Time N/A
Airport Kangerlussuaq International Airport (BGSF)

Arrival

Time 2026-04-29 15:27
Airport Nuuk International Airport (BGGH)
Time Latitude Longitude Altitude Speed Heading
2026-04-29 15:18 64.47721 -51.62862 10469 ft 287 kts 198°
2026-04-29 15:18 64.45875 -51.64221 9726 ft 281 kts 196°
2026-04-29 15:18 64.44038 -51.63924 9145 ft 264 kts 160°
2026-04-29 15:18 64.42352 -51.62479 8890 ft 260 kts 159°
2026-04-29 15:19 64.40707 -51.61084 8686 ft 257 kts 159°
2026-04-29 15:19 64.39043 -51.59684 8485 ft 254 kts 159°
2026-04-29 15:19 64.37455 -51.58351 8294 ft 252 kts 159°
2026-04-29 15:19 64.35905 -51.57055 7892 ft 245 kts 159°
2026-04-29 15:20 64.34512 -51.55955 7426 ft 226 kts 189°
2026-04-29 15:20 64.32903 -51.56122 6782 ft 224 kts 169°
2026-04-29 15:20 64.31420 -51.56019 6147 ft 219 kts 200°
2026-04-29 15:20 64.30284 -51.58032 5516 ft 206 kts 241°
2026-04-29 15:21 64.29524 -51.60732 4939 ft 201 kts 243°
2026-04-29 15:21 64.28589 -51.63054 4326 ft 205 kts 212°
2026-04-29 15:21 64.27226 -51.63497 3720 ft 205 kts 169°
2026-04-29 15:21 64.25959 -51.62281 3008 ft 197 kts 155°
2026-04-29 15:22 64.24663 -51.61785 2222 ft 194 kts 194°
2026-04-29 15:22 64.23753 -51.63456 2185 ft 166 kts 245°
2026-04-29 15:22 64.23502 -51.66079 2185 ft 177 kts 253°
2026-04-29 15:22 64.22929 -51.68456 2184 ft 163 kts 242°
2026-04-29 15:23 64.22371 -51.70668 2186 ft 156 kts 242°
2026-04-29 15:23 64.21823 -51.72823 2188 ft 154 kts 241°
2026-04-29 15:23 64.20988 -51.74292 2187 ft 156 kts 198°
2026-04-29 15:23 64.20025 -51.74981 2208 ft 128 kts 198°
2026-04-29 15:24 64.19192 -51.75568 2188 ft 122 kts 198°
2026-04-29 15:24 64.18386 -51.76134 2188 ft 118 kts 198°
2026-04-29 15:24 64.17596 -51.76689 2189 ft 117 kts 198°
2026-04-29 15:24 64.16816 -51.77236 2156 ft 120 kts 198°
2026-04-29 15:25 64.15974 -51.77191 2004 ft 126 kts 158°
2026-04-29 15:25 64.15324 -51.75837 1785 ft 127 kts 116°
2026-04-29 15:25 64.15113 -51.74170 1566 ft 99 kts 86°
2026-04-29 15:25 64.15369 -51.72766 1381 ft 95 kts 45°
2026-04-29 15:26 64.15810 -51.71726 1272 ft 90 kts 39°
2026-04-29 15:26 64.16292 -51.70840 1179 ft 86 kts 35°
2026-04-29 15:26 64.16794 -51.70066 1065 ft 87 kts 30°
2026-04-29 15:26 64.17275 -51.69408 878 ft 77 kts 27°
2026-04-29 15:27 64.17767 -51.68898 708 ft 84 kts 20°
2026-04-29 15:27 64.18282 -51.68471 478 ft 78 kts 18°
2026-04-29 15:27 64.18796 -51.68047 281 ft 74 kts 20°
2026-04-29 15:27 64.19227 -51.67719 236 ft 39 kts 19°
2026-04-29 15:28 64.19292 -51.67632 243 ft 13 kts 205°
2026-04-29 15:28 64.19202 -51.67703 238 ft 15 kts 195°
2026-04-29 15:28 64.19099 -51.67749 237 ft 11 kts 145°
2026-04-29 15:28 64.19067 -51.67601 252 ft 5 kts 109°
2026-04-29 15:29 64.19074 -51.67349 276 ft 19 kts 163°